EVA712 RCTP-ZSPD

Flight info

Callsign EVA712
Flight time N/A
Altitude 37000
Route PIANO L3 VIOLA R596 SULEM/K0891S1130 R596 DST B221 SHZ W58 XSY
Aircraft B77W/H-SDE1E2E3FGHIJ1J3J4J5LM1P2RWXYZ/LB1D1

Departure

Time N/A
Airport Taiwan Taoyuan International Airport (RCTP)

Arrival

Time 2026-05-05 11:11
Airport Shanghai Pudong International Airport (ZSPD)
Time Latitude Longitude Altitude Speed Heading
2026-05-05 10:26 27.57291 122.26638 37174 ft 458 kts 304°
2026-05-05 10:26 27.59506 122.24057 37172 ft 458 kts 304°
2026-05-05 10:26 27.63927 122.18900 37179 ft 457 kts 304°
2026-05-05 10:27 27.68341 122.13744 37184 ft 457 kts 304°
2026-05-05 10:27 27.72753 122.08583 37185 ft 457 kts 304°
2026-05-05 10:28 27.77166 122.03416 37183 ft 457 kts 304°
2026-05-05 10:28 27.81585 121.98234 37184 ft 458 kts 304°
2026-05-05 10:29 27.86004 121.93048 37184 ft 458 kts 304°
2026-05-05 10:29 27.90468 121.87894 37182 ft 465 kts 309°
2026-05-05 10:30 27.93118 121.85700 37186 ft 480 kts 319°
2026-05-05 10:30 27.96096 121.83900 37188 ft 490 kts 325°
2026-05-05 10:30 27.99296 121.82478 37172 ft 503 kts 334°
2026-05-05 10:30 28.02711 121.81489 37190 ft 509 kts 337°
2026-05-05 10:31 28.09668 121.79815 37187 ft 512 kts 338°
2026-05-05 10:31 28.16607 121.78185 37188 ft 512 kts 338°
2026-05-05 10:32 28.23562 121.76466 37189 ft 511 kts 337°
2026-05-05 10:32 28.30503 121.74698 37186 ft 511 kts 337°
2026-05-05 10:33 28.37442 121.72937 37076 ft 502 kts 338°
2026-05-05 10:33 28.40857 121.72127 36733 ft 502 kts 338°
2026-05-05 10:33 28.44247 121.71326 36234 ft 506 kts 338°
2026-05-05 10:34 28.47698 121.70492 35716 ft 509 kts 338°
2026-05-05 10:34 28.51162 121.69632 35258 ft 510 kts 338°
2026-05-05 10:34 28.54630 121.68754 34830 ft 511 kts 337°
2026-05-05 10:34 28.58102 121.67862 34378 ft 512 kts 337°
2026-05-05 10:35 28.61582 121.66962 33891 ft 514 kts 337°
2026-05-05 10:35 28.65067 121.66058 33339 ft 515 kts 337°
2026-05-05 10:35 28.68565 121.65152 32826 ft 515 kts 338°
2026-05-05 10:35 28.72061 121.64247 32432 ft 513 kts 338°
2026-05-05 10:36 28.75531 121.63353 32137 ft 509 kts 338°
2026-05-05 10:36 28.78970 121.62467 31854 ft 505 kts 338°
2026-05-05 10:36 28.82394 121.61584 31543 ft 502 kts 338°
2026-05-05 10:36 28.85793 121.60704 31233 ft 500 kts 338°
2026-05-05 10:37 28.89173 121.59827 30939 ft 497 kts 338°
2026-05-05 10:37 28.92532 121.58955 30646 ft 494 kts 338°
2026-05-05 10:37 28.95882 121.58084 30354 ft 492 kts 338°
2026-05-05 10:37 28.99200 121.57221 30082 ft 489 kts 338°
2026-05-05 10:38 29.02515 121.56359 29757 ft 486 kts 339°
2026-05-05 10:38 29.05803 121.55503 29423 ft 484 kts 339°
2026-05-05 10:38 29.09076 121.54650 29132 ft 481 kts 339°
2026-05-05 10:38 29.12319 121.53805 28850 ft 477 kts 339°
2026-05-05 10:39 29.15551 121.52963 28547 ft 474 kts 339°
2026-05-05 10:39 29.18759 121.52127 28240 ft 472 kts 339°
2026-05-05 10:39 29.21946 121.51295 27927 ft 469 kts 339°
2026-05-05 10:39 29.25128 121.50463 27642 ft 467 kts 339°
2026-05-05 10:40 29.28284 121.49638 27339 ft 464 kts 340°
2026-05-05 10:40 29.31424 121.48817 27059 ft 462 kts 340°
2026-05-05 10:40 29.34550 121.47998 26784 ft 459 kts 340°
2026-05-05 10:40 29.37655 121.47184 26528 ft 456 kts 340°
2026-05-05 10:41 29.40744 121.46375 26256 ft 454 kts 340°
2026-05-05 10:41 29.43811 121.45571 25987 ft 451 kts 340°
2026-05-05 10:41 29.46866 121.44769 25723 ft 449 kts 340°
2026-05-05 10:41 29.49897 121.43973 25459 ft 446 kts 340°
2026-05-05 10:42 29.55930 121.42387 24947 ft 442 kts 341°
2026-05-05 10:42 29.58918 121.41602 24692 ft 440 kts 341°
2026-05-05 10:42 29.61891 121.40819 24456 ft 437 kts 341°
2026-05-05 10:43 29.64849 121.40040 24217 ft 435 kts 341°
2026-05-05 10:43 29.67801 121.39261 23863 ft 434 kts 341°
2026-05-05 10:43 29.70738 121.38486 23287 ft 432 kts 342°
2026-05-05 10:43 29.73653 121.37717 22681 ft 429 kts 342°
2026-05-05 10:44 29.76545 121.36953 22112 ft 425 kts 342°
2026-05-05 10:44 29.79408 121.36197 21565 ft 420 kts 343°
2026-05-05 10:44 29.82249 121.35447 21033 ft 417 kts 343°
2026-05-05 10:44 29.85056 121.34705 20502 ft 413 kts 343°
2026-05-05 10:45 29.87878 121.34226 19958 ft 411 kts 356°
2026-05-05 10:45 29.90722 121.34597 19526 ft 411 kts 11°
2026-05-05 10:45 29.93395 121.35698 19169 ft 406 kts 24°
2026-05-05 10:45 29.95857 121.37241 18828 ft 401 kts 26°
2026-05-05 10:46 29.98284 121.38806 18486 ft 400 kts 27°
2026-05-05 10:46 30.00723 121.40372 18106 ft 401 kts 26°
2026-05-05 10:46 30.03164 121.41927 17726 ft 401 kts 26°
2026-05-05 10:46 30.05605 121.43468 17359 ft 399 kts 26°
2026-05-05 10:47 30.08032 121.44992 17001 ft 396 kts 26°
2026-05-05 10:47 30.10444 121.46502 16656 ft 394 kts 26°
2026-05-05 10:47 30.12847 121.48006 16318 ft 391 kts 26°
2026-05-05 10:47 30.15230 121.49497 15963 ft 389 kts 26°
2026-05-05 10:48 30.17602 121.50983 15645 ft 387 kts 26°
2026-05-05 10:48 30.19174 121.51968 15427 ft 386 kts 26°
2026-05-05 10:48 30.21524 121.53442 15086 ft 384 kts 26°
2026-05-05 10:48 30.23870 121.54912 14756 ft 383 kts 26°
2026-05-05 10:49 30.26202 121.56381 14430 ft 381 kts 27°
2026-05-05 10:49 30.28519 121.57874 14093 ft 379 kts 27°
2026-05-05 10:49 30.30813 121.59368 13759 ft 377 kts 28°
2026-05-05 10:49 30.33095 121.60851 13397 ft 375 kts 28°
2026-05-05 10:50 30.35366 121.62323 13048 ft 373 kts 28°
2026-05-05 10:50 30.37616 121.63794 12716 ft 370 kts 29°
2026-05-05 10:50 30.39814 121.65316 12393 ft 367 kts 30°
2026-05-05 10:50 30.41987 121.66857 12070 ft 365 kts 30°
2026-05-05 10:51 30.44148 121.68393 11772 ft 362 kts 30°
2026-05-05 10:51 30.46276 121.69902 11444 ft 356 kts 30°
2026-05-05 10:51 30.48372 121.71382 11132 ft 349 kts 30°
2026-05-05 10:51 30.50434 121.72835 10820 ft 343 kts 30°
2026-05-05 10:52 30.52459 121.74261 10537 ft 338 kts 30°
2026-05-05 10:52 30.54450 121.75662 10247 ft 333 kts 31°
2026-05-05 10:52 30.56414 121.77041 9971 ft 327 kts 29°
2026-05-05 10:52 30.58423 121.78071 9931 ft 307 kts 18°
2026-05-05 10:53 30.60406 121.78849 9841 ft 296 kts 18°
2026-05-05 10:53 30.62334 121.79599 9623 ft 290 kts 18°
2026-05-05 10:53 30.64232 121.80336 9449 ft 285 kts 18°
2026-05-05 10:53 30.66106 121.81064 9340 ft 283 kts 18°
2026-05-05 10:54 30.67971 121.81789 9226 ft 282 kts 18°
2026-05-05 10:54 30.69819 121.82509 9117 ft 279 kts 18°
2026-05-05 10:54 30.71653 121.83225 9006 ft 277 kts 18°
2026-05-05 10:54 30.73476 121.83937 8901 ft 276 kts 18°
2026-05-05 10:55 30.75294 121.84648 8800 ft 275 kts 18°
2026-05-05 10:55 30.77105 121.85357 8700 ft 275 kts 18°
2026-05-05 10:55 30.78919 121.86067 8596 ft 274 kts 18°
2026-05-05 10:55 30.80728 121.86777 8485 ft 274 kts 18°
2026-05-05 10:56 30.82528 121.87483 8372 ft 271 kts 18°
2026-05-05 10:56 30.84299 121.88178 8160 ft 268 kts 18°
2026-05-05 10:56 30.86026 121.88855 7897 ft 265 kts 18°
2026-05-05 10:56 30.87759 121.89536 7670 ft 261 kts 18°
2026-05-05 10:57 30.89473 121.90209 7385 ft 260 kts 18°
2026-05-05 10:57 30.91190 121.90884 7057 ft 260 kts 19°
2026-05-05 10:57 30.92900 121.91556 6794 ft 259 kts 19°
2026-05-05 10:57 30.94600 121.92225 6537 ft 257 kts 19°
2026-05-05 10:58 30.96284 121.92888 6246 ft 256 kts 19°
2026-05-05 10:58 30.97959 121.93547 6069 ft 250 kts 19°
2026-05-05 10:58 30.99586 121.94188 6022 ft 247 kts 19°
2026-05-05 10:58 31.01239 121.94839 6034 ft 255 kts 19°
2026-05-05 10:59 31.02940 121.95509 6028 ft 260 kts 19°
2026-05-05 10:59 31.04658 121.96186 6022 ft 259 kts 19°
2026-05-05 10:59 31.06351 121.96854 6011 ft 256 kts 19°
2026-05-05 10:59 31.08054 121.97335 5992 ft 251 kts 359°
2026-05-05 11:00 31.09769 121.96942 6018 ft 254 kts 342°
2026-05-05 11:00 31.11443 121.96307 6009 ft 251 kts 342°
2026-05-05 11:00 31.13073 121.95686 5991 ft 242 kts 341°
2026-05-05 11:00 31.14661 121.95080 5975 ft 239 kts 341°
2026-05-05 11:01 31.16233 121.94481 5976 ft 237 kts 341°
2026-05-05 11:01 31.17792 121.93888 5961 ft 234 kts 341°
2026-05-05 11:01 31.19349 121.93299 5855 ft 237 kts 341°
2026-05-05 11:01 31.20928 121.92701 5725 ft 240 kts 342°
2026-05-05 11:02 31.22523 121.92099 5578 ft 241 kts 342°
2026-05-05 11:02 31.24111 121.91499 5430 ft 240 kts 341°
2026-05-05 11:02 31.25690 121.90903 5287 ft 239 kts 341°
2026-05-05 11:02 31.27271 121.90308 5149 ft 239 kts 342°
2026-05-05 11:03 31.28857 121.89709 4997 ft 240 kts 342°
2026-05-05 11:03 31.30448 121.89109 4840 ft 242 kts 341°
2026-05-05 11:03 31.32044 121.88507 4607 ft 241 kts 341°
2026-05-05 11:03 31.33660 121.87897 4332 ft 242 kts 341°
2026-05-05 11:04 31.35256 121.87294 4120 ft 241 kts 341°
2026-05-05 11:04 31.36861 121.86686 3893 ft 239 kts 339°
2026-05-05 11:04 31.38221 121.85699 3728 ft 227 kts 307°
2026-05-05 11:04 31.38891 121.84090 3430 ft 219 kts 272°
2026-05-05 11:05 31.38793 121.82368 3229 ft 210 kts 256°
2026-05-05 11:05 31.38502 121.80725 3110 ft 202 kts 254°
2026-05-05 11:05 31.38203 121.79167 3055 ft 198 kts 253°
2026-05-05 11:05 31.37827 121.77572 3007 ft 201 kts 238°
2026-05-05 11:06 31.36893 121.76446 3022 ft 193 kts 207°
2026-05-05 11:06 31.35683 121.75759 3018 ft 197 kts 204°
2026-05-05 11:06 31.34408 121.75180 3004 ft 198 kts 187°
2026-05-05 11:06 31.33052 121.75333 3028 ft 198 kts 169°
2026-05-05 11:07 31.31692 121.75716 3013 ft 202 kts 166°
2026-05-05 11:07 31.30347 121.76184 2887 ft 203 kts 164°
2026-05-05 11:07 31.28996 121.76693 2636 ft 204 kts 163°
2026-05-05 11:07 31.27651 121.77206 2364 ft 201 kts 164°
2026-05-05 11:08 31.26359 121.77698 2090 ft 189 kts 165°
2026-05-05 11:08 31.25157 121.78154 1848 ft 174 kts 164°
2026-05-05 11:08 31.24069 121.78567 1647 ft 157 kts 164°
2026-05-05 11:08 31.23076 121.78943 1423 ft 142 kts 164°
2026-05-05 11:09 31.22174 121.79285 1259 ft 133 kts 164°
2026-05-05 11:09 31.21305 121.79614 1100 ft 131 kts 164°
2026-05-05 11:09 31.20441 121.79942 920 ft 130 kts 164°
2026-05-05 11:09 31.19561 121.80275 756 ft 134 kts 163°
2026-05-05 11:10 31.18676 121.80610 586 ft 135 kts 161°
2026-05-05 11:10 31.17760 121.80965 396 ft 144 kts 160°
2026-05-05 11:10 31.16833 121.81317 244 ft 136 kts 162°
2026-05-05 11:10 31.15943 121.81643 44 ft 133 kts 162°
2026-05-05 11:11 31.15129 121.81949 27 ft 100 kts 162°
2026-05-05 11:11 31.14647 121.82135 29 ft 47 kts 161°
2026-05-05 11:11 31.14449 121.82184 28 ft 24 kts 179°
2026-05-05 11:11 31.14287 121.82156 27 ft 18 kts 188°
2026-05-05 11:12 31.14164 121.82136 28 ft 18 kts 184°
2026-05-05 11:12 31.14041 121.82155 27 ft 18 kts 163°
2026-05-05 11:12 31.13922 121.82200 28 ft 17 kts 161°
2026-05-05 11:12 31.13808 121.82243 27 ft 13 kts 162°
2026-05-05 11:13 31.13745 121.82267 27 ft 10 kts 162°
2026-05-05 11:13 31.13684 121.82252 27 ft 10 kts 222°
2026-05-05 11:13 31.13653 121.82183 28 ft 10 kts 251°
2026-05-05 11:13 31.13631 121.82107 28 ft 10 kts 252°
2026-05-05 11:14 31.13609 121.82025 27 ft 11 kts 252°
2026-05-05 11:14 31.13584 121.81937 27 ft 8 kts 252°
2026-05-05 11:14 31.13572 121.81872 27 ft 8 kts 275°
2026-05-05 11:14 31.13607 121.81822 27 ft 8 kts 328°
2026-05-05 11:15 31.13662 121.81798 27 ft 10 kts 342°
2026-05-05 11:15 31.13766 121.81759 28 ft 23 kts 342°
2026-05-05 11:15 31.13928 121.81698 28 ft 25 kts 342°
2026-05-05 11:15 31.14091 121.81636 28 ft 25 kts 342°
2026-05-05 11:16 31.14255 121.81575 27 ft 25 kts 342°
2026-05-05 11:16 31.14418 121.81513 27 ft 25 kts 342°
2026-05-05 11:16 31.14581 121.81451 27 ft 25 kts 342°
2026-05-05 11:16 31.14719 121.81399 28 ft 16 kts 342°
2026-05-05 11:17 31.14794 121.81371 28 ft 9 kts 342°
2026-05-05 11:17 31.14846 121.81330 28 ft 10 kts 297°
2026-05-05 11:17 31.14844 121.81253 28 ft 10 kts 255°
2026-05-05 11:17 31.14824 121.81176 28 ft 10 kts 252°
2026-05-05 11:18 31.14806 121.81111 28 ft 9 kts 253°
2026-05-05 11:18 31.14827 121.81050 28 ft 9 kts 316°
2026-05-05 11:18 31.14883 121.81016 28 ft 9 kts 340°
2026-05-05 11:18 31.14920 121.80984 28 ft 7 kts 296°
2026-05-05 11:19 31.14919 121.80936 28 ft 4 kts 257°
2026-05-05 11:19 31.14910 121.80901 28 ft 3 kts 253°
2026-05-05 11:19 31.14910 121.80899 28 ft 0 kts 253°